DW8923 Weather Reports


Display with metric or nautical units.
time (UTC)temp
F
wind
direction
speed
MPH
gust
MPH
rain 1hr
in
rain 24hr
in
rain mn
in
humidity
%
barometer
mb
20260507203105 64 54 2.0 8.0 0.00 0.00 0.00 70 1016.5
20260507201559 64 328 0.0 5.0 0.00 0.00 0.00 70 1016.8
20260507200105 64 322 2.0 8.0 0.00 0.00 0.00 71 1016.1
20260507194550 64 329 1.0 5.0 0.00 0.00 0.00 72 1016.9
20260507193050 64 310 0.0 5.0 0.00 0.00 0.00 71 1017.5
20260507191546 64 57 3.0 7.0 0.00 0.00 0.00 71 1017.0
20260507190048 63 14 1.0 6.0 0.00 0.00 0.00 74 1016.9
20260507184548 63 39 3.0 11.0 0.00 0.00 0.00 73 1016.7
20260507183047 63 32 3.0 6.0 0.00 0.00 0.00 73 1016.8
20260507181541 63 18 2.0 5.0 0.00 0.00 0.00 75 1016.9
20260507180046 62 57 2.0 8.0 0.00 0.00 0.00 75 1017.7
20260507174538 62 311 2.0 9.0 0.00 0.00 0.00 75 1017.9
20260507173036 61 39 4.0 10.0 0.00 0.00 0.00 77 1016.9
20260507171530 60 13 3.0 10.0 0.00 0.00 0.00 81 1017.8
20260507170036 60 342 2.0 6.0 0.00 0.00 0.00 82 1017.1
20260507164531 60 80 2.0 5.0 0.00 0.00 0.00 81 1017.2
20260507163029 60 287 3.0 6.0 0.00 0.00 0.00 81 1019.2
20260507161528 59 346 0.0 5.0 0.00 0.00 0.00 82 1019.0
20260507160028 59 349 2.0 5.0 0.00 0.00 0.00 83 1018.4
20260507154628 59 5 0.0 5.0 0.00 0.00 0.00 83 1018.6
20260507153025 59 13 1.0 5.0 0.00 0.00 0.00 83 1018.4
20260507151523 58 5 2.0 9.0 0.00 0.00 0.00 84 1018.2
20260507150026 58 39 2.0 9.0 0.00 0.00 0.00 84 1018.7
20260507144525 57 38 2.0 9.0 0.00 0.00 0.00 87 1017.5
20260507143027 57 360 2.0 10.0 0.00 0.00 0.00 90 1017.9
20260507141518 57 315 1.0 10.0 0.00 0.00 0.00 91 1018.2
20260507140116 57 17 1.0 8.0 0.00 0.00 0.00 91 1018.1
20260507134521 56 321 2.0 6.0 0.00 0.00 0.00 92 1017.6
20260507133016 56 26 2.0 11.0 0.00 0.00 0.00 92 1017.6
20260507131516 56 360 2.0 12.0 0.00 0.00 0.00 93 1017.7
20260507130012 56 306 3.0 8.0 0.00 0.00 0.00 93 1017.8
20260507124512 56 315 3.0 9.0 0.00 0.00 0.00 92 1017.7
20260507123013 56 355 3.0 10.0 0.00 0.00 0.00 92 1017.5
20260507121507 56 286 3.0 12.0 0.00 0.00 0.00 92 1017.4
20260507120006 56 332 3.0 11.0 0.00 0.00 0.00 92 1016.8
20260507114501 56 57 3.0 8.0 0.00 0.00 0.00 91 1016.9
20260507113100 57 318 2.0 10.0 0.00 0.00 0.00 91 1017.0
20260507111601 57 324 1.0 9.0 0.00 0.00 0.00 91 1016.8
20260507110056 57 22 0.0 10.0 0.00 0.00 0.00 91 1016.6
20260507104555 57 355 2.0 10.0 0.00 0.00 0.00 91 1016.9
20260507103054 57 340 1.0 9.0 0.00 0.00 0.00 90 1016.3
20260507101553 57 319 2.0 10.0 0.00 0.00 0.00 90 1016.5
20260507100050 57 31 0.0 6.0 0.00 0.00 0.00 90 1016.1
20260507094549 57 30 1.0 5.0 0.00 0.00 0.00 90 1016.3
20260507093049 57 355 2.0 6.0 0.00 0.00 0.00 90 1015.7
20260507091547 57 36 1.0 5.0 0.00 0.00 0.00 90 1016.0
20260507090047 57 325 0.0 8.0 0.00 0.00 0.00 90 1015.5
20260507084553 57 5 1.0 6.0 0.00 0.00 0.00 90 1015.3
20260507083041 57 17 1.0 4.0 0.00 0.00 0.00 89 1015.1
20260507081543 57 23 1.0 5.0 0.00 0.00 0.00 89 1015.0
20260507080043 58 355 3.0 7.0 0.00 0.00 0.00 89 1014.4
20260507074537 58 11 3.0 9.0 0.00 0.00 0.00 88 1014.7
20260507073035 58 30 2.0 8.0 0.00 0.00 0.00 88 1014.5
20260507071533 58 78 0.0 4.0 0.00 0.00 0.00 87 1014.6
20260507070033 59 46 2.0 6.0 0.00 0.00 0.00 87 1014.4
20260507064530 59 50 0.0 6.0 0.00 0.00 0.00 86 1014.4
20260507063030 59 13 3.0 6.0 0.00 0.00 0.00 86 1014.2
20260507061529 59 360 2.0 8.0 0.00 0.00 0.00 85 1014.6
20260507060026 59 17 1.0 5.0 0.00 0.00 0.00 85 1014.6
20260507054534 59 305 2.0 8.0 0.00 0.00 0.00 85 1014.5
20260507053024 60 22 2.0 8.0 0.00 0.00 0.00 85 1014.3
20260507051523 60 355 2.0 5.0 0.00 0.00 0.00 85 1014.5
20260507050026 60 24 2.0 6.0 0.00 0.00 0.00 85 1014.3
20260507044521 60 350 2.0 10.0 0.00 0.00 0.00 84 1014.2
20260507043024 60 17 2.0 6.0 0.00 0.00 0.00 84 1014.4
20260507041519 60 340 2.0 6.0 0.00 0.00 0.00 85 1014.5
20260507040017 60 327 0.0 11.0 0.00 0.00 0.00 85 1014.5
20260507034516 60 324 0.0 6.0 0.00 0.00 0.00 85 1014.2
20260507033015 60 342 0.0 5.0 0.00 0.00 0.00 86 1014.2
20260507031513 60 355 0.0 6.0 0.00 0.00 0.00 86 1013.9
20260507030013 60 343 0.0 8.0 0.00 0.00 0.00 87 1014.0
20260507024513 60 24 3.0 8.0 0.00 0.00 0.00 87 1014.1
20260507023009 60 293 1.0 8.0 0.00 0.00 0.00 87 1013.5
20260507021508 60 312 0.0 3.0 0.00 0.00 0.00 86 1013.5
20260507020006 60 315 1.0 6.0 0.00 0.00 0.00 86 1013.3
20260507014504 60 329 0.0 6.0 0.00 0.00 0.00 86 1012.9
20260507013006 60 326 1.0 5.0 0.00 0.00 0.00 86 1012.6
20260507011601 60 300 1.0 4.0 0.00 0.00 0.00 86 1012.5
20260507010104 60 339 0.0 5.0 0.00 0.00 0.00 85 1012.1
20260507004606 61 299 1.0 4.0 0.00 0.00 0.00 85 1011.8
20260507003058 61 313 1.0 8.0 0.00 0.00 0.00 85 1011.7
20260507001559 61 319 0.0 6.0 0.00 0.00 0.00 84 1011.7
20260507000058 61 294 1.0 7.0 0.00 0.00 0.00 84 1011.7
20260506234557 61 320 0.0 10.0 0.00 0.00 0.00 84 1011.4
20260506233110 61 327 0.0 8.0 0.00 0.00 0.00 84 1011.7
20260506231601 61 344 0.0 9.0 0.00 0.00 0.00 84 1011.7
20260506230056 61 288 2.0 10.0 0.00 0.00 0.00 83 1011.5
20260506224555 61 327 1.0 8.0 0.00 0.00 0.00 85 1011.4
20260506223055 60 302 3.0 6.0 0.00 0.00 0.00 85 1011.1
20260506221553 60 302 2.0 8.0 0.00 0.00 0.00 86 1011.2
20260506220053 60 306 3.0 10.0 0.00 0.00 0.00 86 1011.4
20260506214554 59 290 2.0 6.0 0.00 0.00 0.00 86 1011.1
20260506213110 59 327 3.0 11.0 0.00 0.00 0.00 85 1011.3
20260506211549 60 49 2.0 10.0 0.00 0.00 0.00 85 1011.4
20260506210048 60 304 4.0 11.0 0.00 0.00 0.00 84 1011.5
20260506204547 60 302 1.0 9.0 0.00 0.00 0.00 85 1011.5